RLU249 ULLI-UUDL

Flight info

Callsign RLU249
Flight time 1h 4m
Altitude 31000
Route N0420F310 SUGIN T824 GIKEN T786 GOBOM T617 MAGOK
Aircraft CRJ1/M-J/L

Departure

Time 2026-04-23 18:56
Airport Pulkovo Airport (ULLI)

Arrival

Time 2026-04-23 20:01
Airport Golden Ring Yaroslavl International Airport (UUDL)
Time Latitude Longitude Altitude Speed Heading
2026-04-23 18:21 59.79728 30.26252 84 ft 0 kts 285°
2026-04-23 18:42 59.79728 30.26253 80 ft 0 kts 285°
2026-04-23 18:50 59.79728 30.26251 80 ft 1 kts 285°
2026-04-23 18:50 59.79756 30.26133 83 ft 10 kts 338°
2026-04-23 18:50 59.79841 30.26164 81 ft 15 kts 17°
2026-04-23 18:50 59.79952 30.26230 78 ft 18 kts 15°
2026-04-23 18:51 59.80084 30.26305 74 ft 21 kts 16°
2026-04-23 18:51 59.80223 30.26387 75 ft 21 kts 18°
2026-04-23 18:51 59.80362 30.26446 69 ft 18 kts
2026-04-23 18:51 59.80438 30.26598 71 ft 18 kts 104°
2026-04-23 18:52 59.80401 30.26850 66 ft 20 kts 106°
2026-04-23 18:52 59.80361 30.27117 73 ft 21 kts 106°
2026-04-23 18:52 59.80319 30.27405 72 ft 22 kts 106°
2026-04-23 18:52 59.80272 30.27711 66 ft 24 kts 107°
2026-04-23 18:53 59.80239 30.27926 71 ft 25 kts 107°
2026-04-23 18:53 59.80190 30.28264 73 ft 26 kts 105°
2026-04-23 18:53 59.80202 30.28657 68 ft 16 kts 50°
2026-04-23 18:53 59.80215 30.28687 73 ft 0 kts 50°
2026-04-23 18:54 59.80223 30.28705 73 ft 5 kts 50°
2026-04-23 18:55 59.80266 30.28804 74 ft 13 kts 49°
2026-04-23 18:55 59.80344 30.28777 71 ft 19 kts 290°
2026-04-23 18:55 59.80452 30.28055 71 ft 94 kts 286°
2026-04-23 18:55 59.80704 30.26370 116 ft 153 kts 288°
2026-04-23 18:56 59.81033 30.24184 625 ft 178 kts 287°
2026-04-23 18:56 59.81398 30.21676 1312 ft 198 kts 289°
2026-04-23 18:56 59.81783 30.18943 2055 ft 212 kts 290°
2026-04-23 18:56 59.82199 30.16089 2902 ft 218 kts 290°
2026-04-23 18:57 59.82630 30.13159 3866 ft 220 kts 290°
2026-04-23 18:57 59.83065 30.10214 4767 ft 223 kts 290°
2026-04-23 18:57 59.83498 30.07263 5626 ft 226 kts 290°
2026-04-23 18:57 59.83940 30.04230 6462 ft 229 kts 290°
2026-04-23 18:58 59.84020 30.01022 7196 ft 243 kts 257°
2026-04-23 18:58 59.83080 29.98207 7918 ft 257 kts 227°
2026-04-23 18:58 59.81630 29.95904 8316 ft 280 kts 212°
2026-04-23 18:58 59.79847 29.94483 9321 ft 276 kts 198°
2026-04-23 18:59 59.77948 29.93626 9991 ft 283 kts 183°
2026-04-23 18:59 59.76038 29.94379 10630 ft 282 kts 147°
2026-04-23 18:59 59.74639 29.96921 11279 ft 270 kts 114°
2026-04-23 18:59 59.73758 30.00198 11987 ft 268 kts 107°
2026-04-23 19:00 59.73046 30.03577 12669 ft 269 kts 102°
2026-04-23 19:00 59.72559 30.07113 13364 ft 262 kts 88°
2026-04-23 19:00 59.72452 30.10706 13997 ft 261 kts 82°
2026-04-23 19:00 59.72429 30.14338 14586 ft 263 kts 81°
2026-04-23 19:01 59.72394 30.17954 15185 ft 267 kts 82°
2026-04-23 19:01 59.72299 30.21675 15786 ft 272 kts 83°
2026-04-23 19:01 59.72172 30.25440 16383 ft 276 kts 83°
2026-04-23 19:01 59.72044 30.29249 16987 ft 279 kts 83°
2026-04-23 19:02 59.71918 30.33096 17563 ft 282 kts 82°
2026-04-23 19:02 59.71791 30.36994 18138 ft 285 kts 82°
2026-04-23 19:02 59.71662 30.40890 18617 ft 288 kts 82°
2026-04-23 19:02 59.71531 30.44870 19140 ft 290 kts 82°
2026-04-23 19:03 59.71395 30.48878 19643 ft 292 kts 81°
2026-04-23 19:03 59.71259 30.52915 20143 ft 294 kts 81°
2026-04-23 19:03 59.71120 30.56932 20628 ft 296 kts 81°
2026-04-23 19:03 59.70979 30.61020 21115 ft 299 kts 80°
2026-04-23 19:04 59.70835 30.65152 21593 ft 301 kts 80°
2026-04-23 19:04 59.70690 30.69314 22067 ft 303 kts 80°
2026-04-23 19:04 59.70540 30.73490 22537 ft 305 kts 80°
2026-04-23 19:04 59.70389 30.77699 23000 ft 308 kts 80°
2026-04-23 19:05 59.70237 30.81897 23433 ft 310 kts 79°
2026-04-23 19:05 59.70080 30.86191 23815 ft 312 kts 79°
2026-04-23 19:05 59.69923 30.90452 24183 ft 313 kts 79°
2026-04-23 19:05 59.69761 30.94776 24544 ft 315 kts 79°
2026-04-23 19:06 59.69598 30.99143 24901 ft 317 kts 79°
2026-04-23 19:06 59.69434 31.03477 25253 ft 319 kts 79°
2026-04-23 19:06 59.69264 31.07883 25601 ft 321 kts 79°
2026-04-23 19:06 59.69094 31.12330 25944 ft 323 kts 79°
2026-04-23 19:07 59.68923 31.16735 26273 ft 325 kts 79°
2026-04-23 19:07 59.68746 31.21221 26609 ft 327 kts 79°
2026-04-23 19:07 59.68567 31.25736 26938 ft 329 kts 79°
2026-04-23 19:07 59.68386 31.30269 27264 ft 331 kts 79°
2026-04-23 19:08 59.68204 31.34778 27576 ft 333 kts 79°
2026-04-23 19:08 59.68018 31.39368 27893 ft 335 kts 79°
2026-04-23 19:08 59.67829 31.43986 28194 ft 337 kts 80°
2026-04-23 19:08 59.67637 31.48642 28498 ft 339 kts 80°
2026-04-23 19:09 59.67443 31.53251 28786 ft 340 kts 80°
2026-04-23 19:09 59.67246 31.57955 29084 ft 342 kts 80°
2026-04-23 19:09 59.67046 31.62664 29371 ft 344 kts 80°
2026-04-23 19:09 59.66843 31.67397 29668 ft 346 kts 80°
2026-04-23 19:10 59.66639 31.72104 29913 ft 348 kts 81°
2026-04-23 19:10 59.66432 31.76898 30130 ft 350 kts 81°
2026-04-23 19:10 59.66221 31.81717 30339 ft 351 kts 81°
2026-04-23 19:10 59.66009 31.86492 30551 ft 353 kts 82°
2026-04-23 19:11 59.65791 31.91379 30686 ft 358 kts 82°
2026-04-23 19:11 59.65341 32.01363 30771 ft 373 kts 83°
2026-04-23 19:12 59.64940 32.10038 30792 ft 387 kts 84°
2026-04-23 19:12 59.64366 32.22677 30796 ft 404 kts 84°
2026-04-23 19:13 59.63834 32.33846 30787 ft 413 kts 85°
2026-04-23 19:13 59.63276 32.45300 30780 ft 421 kts 85°
2026-04-23 19:14 59.62700 32.56918 30777 ft 429 kts 85°
2026-04-23 19:14 59.62106 32.68677 30768 ft 436 kts 86°
2026-04-23 19:15 59.61490 32.80669 30764 ft 441 kts 86°
2026-04-23 19:15 59.60853 32.92828 30758 ft 445 kts 87°
2026-04-23 19:16 59.60207 33.04984 30754 ft 447 kts 87°
2026-04-23 19:16 59.59543 33.17220 30753 ft 450 kts 87°
2026-04-23 19:17 59.58520 33.35678 30747 ft 453 kts 88°
2026-04-23 19:17 59.57820 33.48050 30744 ft 454 kts 88°
2026-04-23 19:18 59.57107 33.60428 30744 ft 456 kts 88°
2026-04-23 19:18 59.56381 33.72841 30742 ft 457 kts 89°
2026-04-23 19:19 59.55262 33.91555 30740 ft 459 kts 89°
2026-04-23 19:20 59.54114 34.10283 30734 ft 460 kts 90°
2026-04-23 19:20 59.53329 34.22831 30731 ft 459 kts 90°
2026-04-23 19:21 59.52146 34.41403 30729 ft 454 kts 90°
2026-04-23 19:22 59.51349 34.53702 30728 ft 451 kts 90°
2026-04-23 19:22 59.50137 34.72017 30722 ft 448 kts 91°
2026-04-23 19:23 59.49323 34.84126 30715 ft 446 kts 91°
2026-04-23 19:24 59.48084 35.02208 30715 ft 444 kts 91°
2026-04-23 19:24 59.46825 35.20185 30712 ft 442 kts 91°
2026-04-23 19:25 59.45118 35.44061 30701 ft 439 kts 92°
2026-04-23 19:26 59.43717 35.55771 30701 ft 445 kts 103°
2026-04-23 19:26 59.42645 35.61518 30696 ft 446 kts 105°
2026-04-23 19:27 59.37259 35.89703 30679 ft 436 kts 104°
2026-04-23 19:28 59.33131 36.11750 30671 ft 428 kts 105°
2026-04-23 19:29 59.30043 36.28070 30670 ft 424 kts 105°
2026-04-23 19:30 59.26973 36.44164 30662 ft 420 kts 106°
2026-04-23 19:31 59.23891 36.60183 30656 ft 417 kts 106°
2026-04-23 19:31 59.21845 36.70748 30651 ft 415 kts 107°
2026-04-23 19:32 59.19803 36.81230 30645 ft 413 kts 107°
2026-04-23 19:32 59.17751 36.91710 30645 ft 412 kts 107°
2026-04-23 19:33 59.15714 37.02066 30637 ft 410 kts 107°
2026-04-23 19:33 59.12645 37.17556 30628 ft 409 kts 108°
2026-04-23 19:34 59.10586 37.27888 30629 ft 407 kts 108°
2026-04-23 19:35 59.07503 37.43253 30618 ft 406 kts 108°
2026-04-23 19:35 59.05446 37.53438 30615 ft 405 kts 109°
2026-04-23 19:36 59.03381 37.63617 30612 ft 404 kts 109°
2026-04-23 19:36 59.01318 37.73725 30606 ft 404 kts 109°
2026-04-23 19:37 58.99231 37.83909 30607 ft 406 kts 109°
2026-04-23 19:37 58.97137 37.94066 30601 ft 407 kts 110°
2026-04-23 19:38 58.95028 38.04248 30593 ft 409 kts 110°
2026-04-23 19:38 58.92907 38.14440 30586 ft 410 kts 110°
2026-04-23 19:39 58.90759 38.24705 30589 ft 411 kts 110°
2026-04-23 19:39 58.88618 38.34905 30580 ft 411 kts 110°
2026-04-23 19:40 58.86454 38.45142 30577 ft 412 kts 111°
2026-04-23 19:40 58.84273 38.55422 30573 ft 413 kts 111°
2026-04-23 19:41 58.81522 38.65085 30569 ft 415 kts 124°
2026-04-23 19:41 58.77821 38.73660 30569 ft 416 kts 131°
2026-04-23 19:42 58.73967 38.82014 30564 ft 417 kts 130°
2026-04-23 19:42 58.70194 38.90517 30560 ft 417 kts 130°
2026-04-23 19:43 58.66444 38.98962 30556 ft 417 kts 130°
2026-04-23 19:43 58.62659 39.07443 30554 ft 418 kts 130°
2026-04-23 19:44 58.58522 39.15253 30294 ft 420 kts 142°
2026-04-23 19:44 58.56227 39.18596 29864 ft 417 kts 144°
2026-04-23 19:44 58.53879 39.21839 29404 ft 414 kts 146°
2026-04-23 19:44 58.51523 39.25001 28887 ft 411 kts 147°
2026-04-23 19:45 58.49192 39.28053 28379 ft 408 kts 147°
2026-04-23 19:45 58.46851 39.31103 27870 ft 405 kts 147°
2026-04-23 19:45 58.44557 39.34224 27377 ft 402 kts 145°
2026-04-23 19:45 58.42307 39.37404 26885 ft 400 kts 145°
2026-04-23 19:46 58.40108 39.40503 26413 ft 397 kts 146°
2026-04-23 19:46 58.37877 39.43632 25934 ft 394 kts 146°
2026-04-23 19:46 58.35665 39.46722 25472 ft 392 kts 146°
2026-04-23 19:46 58.33492 39.49754 25015 ft 389 kts 146°
2026-04-23 19:47 58.32049 39.51768 24718 ft 387 kts 147°
2026-04-23 19:47 58.29892 39.54777 24205 ft 380 kts 147°
2026-04-23 19:47 58.27772 39.57732 23639 ft 374 kts 147°
2026-04-23 19:47 58.25013 39.61570 22866 ft 367 kts 147°
2026-04-23 19:48 58.23643 39.63466 22421 ft 363 kts 147°
2026-04-23 19:48 58.21606 39.66273 21714 ft 360 kts 147°
2026-04-23 19:48 58.18925 39.69977 20774 ft 358 kts 147°
2026-04-23 19:48 58.17591 39.71819 20307 ft 357 kts 147°
2026-04-23 19:49 58.15585 39.74582 19619 ft 356 kts 147°
2026-04-23 19:49 58.13584 39.77335 18952 ft 355 kts 146°
2026-04-23 19:49 58.11582 39.80096 18290 ft 354 kts 146°
2026-04-23 19:49 58.09608 39.82800 17633 ft 353 kts 146°
2026-04-23 19:50 58.07618 39.85530 16897 ft 352 kts 146°
2026-04-23 19:50 58.05637 39.88244 16187 ft 351 kts 145°
2026-04-23 19:50 58.03678 39.90924 15497 ft 350 kts 145°
2026-04-23 19:50 58.01703 39.93622 14816 ft 349 kts 145°
2026-04-23 19:51 57.99746 39.96300 14052 ft 344 kts 145°
2026-04-23 19:51 57.97832 39.98908 13286 ft 335 kts 145°
2026-04-23 19:51 57.95955 40.01450 12441 ft 328 kts 144°
2026-04-23 19:51 57.94142 40.03918 11628 ft 322 kts 144°
2026-04-23 19:52 57.92327 40.06379 10830 ft 317 kts 144°
2026-04-23 19:52 57.90552 40.08786 10057 ft 313 kts 144°
2026-04-23 19:52 57.88791 40.11168 9288 ft 308 kts 143°
2026-04-23 19:52 57.87081 40.13475 8469 ft 304 kts 143°
2026-04-23 19:53 57.85369 40.15791 7663 ft 300 kts 142°
2026-04-23 19:53 57.83677 40.18074 6870 ft 296 kts 141°
2026-04-23 19:53 57.82035 40.20290 6111 ft 292 kts 141°
2026-04-23 19:53 57.80391 40.22510 5309 ft 288 kts 140°
2026-04-23 19:54 57.78787 40.24676 4519 ft 285 kts 139°
2026-04-23 19:54 57.77180 40.26849 3712 ft 282 kts 139°
2026-04-23 19:54 57.75591 40.29004 3021 ft 277 kts 139°
2026-04-23 19:54 57.74090 40.31039 2710 ft 260 kts 139°
2026-04-23 19:55 57.72655 40.32980 2586 ft 248 kts 139°
2026-04-23 19:55 57.71251 40.34719 2525 ft 236 kts 145°
2026-04-23 19:55 57.69842 40.36089 2494 ft 225 kts 150°
2026-04-23 19:55 57.68490 40.37264 2528 ft 202 kts 150°
2026-04-23 19:56 57.67275 40.38300 2502 ft 184 kts 149°
2026-04-23 19:56 57.66152 40.39305 2475 ft 174 kts 148°
2026-04-23 19:56 57.65071 40.40254 2469 ft 169 kts 149°
2026-04-23 19:56 57.63917 40.40641 2367 ft 175 kts 193°
2026-04-23 19:57 57.62846 40.39831 2404 ft 162 kts 208°
2026-04-23 19:57 57.62043 40.38530 2423 ft 145 kts 253°
2026-04-23 19:57 57.61920 40.36828 2436 ft 126 kts 287°
2026-04-23 19:57 57.61921 40.35213 2510 ft 127 kts 270°
2026-04-23 19:58 57.61497 40.33673 2410 ft 143 kts 240°
2026-04-23 19:58 57.60800 40.32288 2318 ft 149 kts 231°
2026-04-23 19:58 57.60098 40.30842 2022 ft 146 kts 241°
2026-04-23 19:58 57.59565 40.29280 1851 ft 141 kts 246°
2026-04-23 19:59 57.59092 40.27686 1570 ft 137 kts 255°
2026-04-23 19:59 57.58736 40.26069 1349 ft 133 kts 257°
2026-04-23 19:59 57.58404 40.24457 1127 ft 135 kts 254°
2026-04-23 19:59 57.58022 40.22845 932 ft 135 kts 250°
2026-04-23 20:00 57.57613 40.21267 729 ft 134 kts 248°
2026-04-23 20:00 57.57198 40.19725 539 ft 131 kts 246°
2026-04-23 20:00 57.56767 40.18271 370 ft 128 kts 242°
2026-04-23 20:00 57.56381 40.16914 311 ft 100 kts 244°
2026-04-23 20:01 57.56168 40.16097 308 ft 39 kts 246°
2026-04-23 20:01 57.56136 40.15978 310 ft 2 kts 173°
2026-04-23 20:01 57.56132 40.15983 307 ft 1 kts 123°
2026-04-23 20:01 57.56145 40.16056 309 ft 14 kts 61°
2026-04-23 20:02 57.56207 40.16265 311 ft 23 kts 61°
2026-04-23 20:02 57.56288 40.16572 309 ft 30 kts 64°
2026-04-23 20:02 57.56393 40.16957 311 ft 37 kts 64°
2026-04-23 20:02 57.56519 40.17422 310 ft 34 kts 63°
2026-04-23 20:03 57.56494 40.17648 310 ft 18 kts 155°
2026-04-23 20:03 57.56406 40.17576 311 ft 17 kts 242°
2026-04-23 20:03 57.56354 40.17536 310 ft 5 kts 131°
2026-04-23 20:03 57.56353 40.17585 311 ft 5 kts 68°
2026-04-23 20:04 57.56374 40.17639 311 ft 2 kts 16°
2026-04-23 20:04 57.56380 40.17642 311 ft 0 kts 17°